Weather History for Biarritz, France

Change the Weather History Date:

Tuesday, June 18, 2013

  Actual Average Record
Temperature  
Mean Temperature 57 °F -  
Max Temperature 59 °F 72 °F 95 °F (2000)
Min Temperature 55 °F 60 °F 50 °F (2008)
Degree Days  
Heating Degree Days 8    
Growing Degree Days 7 (Base 50)    
Moisture  
Dew Point 56 °F    
Average Humidity 93    
Maximum Humidity 100    
Minimum Humidity 88    
Precipitation  
Precipitation 0.00 in - - ()
Sea Level Pressure  
Sea Level Pressure 29.92 in    
Wind  
Wind Speed 3 mph ()    
Max Wind Speed 16 mph    
Max Gust Speed -    
Visibility 5.0 miles    
Events Rain    
Averages and records for this station are not official NWS values.
T = Trace of Precipitation, MM = Missing Value Source: Averaged Metar Reports

Daily Weather History Graph

Daily Weather History Graph

Search for Another Location

Airport:

Trip Planner

Search our weather history database for the weather conditions in past years. The results will help you decide how hot, cold, wet, or windy it might be!

Date:

Astronomy

Jun. 18, 2013 Rise Set
Actual Time 6:24 AM CEST 9:49 PM CEST
Civil Twilight 5:49 AM CEST 10:25 PM CEST
Nautical Twilight 5:02 AM CEST 11:12 PM CEST
Astronomical Twilight 4:03 AM CEST 12:11 AM CEST
Moon 4:10 PM CEST (6/18) 2:33 AM CEST (6/18)
Length of Visible Light 16h 36m
Length of Day
15h 25m
Waxing Gibbous, 68% of the Moon is Illuminated
Jun 18
Waxing Gibbous
Jun 23
Full
Jun 30
Last Quarter
Jul 8
New
Jul 16
First Quarter

Hourly Weather History & Observations

Time (CEST) Temp. Dew Point Humidity Pressure Visibility Wind Dir Wind Speed Gust Speed Precip Events Conditions
12:00 AM 59.0 °F 55.4 °F 88% 29.92 in 6.2 mi Variable 1.2 mph - N/A   Mostly Cloudy
12:30 AM 59.0 °F 55.4 °F 88% 29.92 in 6.2 mi ESE 3.5 mph - N/A   Overcast
1:00 AM 57.2 °F 55.4 °F 94% 29.92 in 6.2 mi East 2.3 mph - N/A   Overcast
1:30 AM 59.0 °F 55.4 °F 88% 29.95 in 6.2 mi Calm Calm - N/A   Overcast
2:00 AM 59.0 °F 55.4 °F 88% 29.92 in 6.2 mi Calm Calm - N/A   Overcast
2:30 AM 59.0 °F 55.4 °F 88% 29.92 in 6.2 mi Calm Calm - N/A   Overcast
3:00 AM 59.0 °F 55.4 °F 88% 29.92 in 6.2 mi ENE 4.6 mph - N/A   Overcast
3:30 AM 59.0 °F 55.4 °F 88% 29.92 in 6.2 mi Variable 2.3 mph - N/A   Overcast
4:00 AM 59.0 °F 57.2 °F 94% 29.89 in 6.2 mi NE 3.5 mph - N/A   Overcast
4:30 AM 59.0 °F 57.2 °F 94% 29.89 in 6.2 mi East 3.5 mph - N/A   Overcast
5:00 AM 59.0 °F 57.2 °F 94% 29.89 in 6.2 mi NE 3.5 mph - N/A Rain Light Rain
5:30 AM 59.0 °F 57.2 °F 94% 29.89 in 6.2 mi Variable 2.3 mph - N/A   Overcast
6:00 AM 59.0 °F 57.2 °F 94% 29.89 in 6.2 mi ENE 4.6 mph - N/A Rain Light Rain
6:12 AM 59.0 °F 57.2 °F 94% 29.89 in 5.6 mi NE 5.8 mph - N/A Rain Light Rain
6:30 AM 59.0 °F 57.2 °F 94% 29.89 in 5.6 mi NE 4.6 mph - N/A Rain Light Rain
7:00 AM 59.0 °F 57.2 °F 94% 29.89 in 2.5 mi NE 5.8 mph - N/A Rain Light Rain
7:30 AM 59.0 °F 57.2 °F 94% 29.89 in 6.2 mi NNE 4.6 mph - N/A   Overcast
8:00 AM 59.0 °F 57.2 °F 94% 29.89 in 6.2 mi Variable 3.5 mph - N/A Rain Light Rain
8:30 AM 59.0 °F 57.2 °F 94% 29.92 in 6.2 mi ENE 3.5 mph - N/A Rain Light Rain
9:00 AM 57.2 °F 55.4 °F 94% 29.92 in 4.3 mi North 4.6 mph - N/A Rain Light Rain
9:30 AM 57.2 °F 55.4 °F 94% 29.92 in 6.2 mi NE 3.5 mph - N/A Rain Light Rain
10:00 AM 57.2 °F 53.6 °F 88% 29.92 in 1.2 mi Calm Calm - N/A Rain Rain
10:30 AM 57.2 °F 55.4 °F 94% 29.92 in 1.9 mi WSW 3.5 mph - N/A Rain Rain
11:00 AM 57.2 °F 55.4 °F 94% 29.92 in 5.6 mi Variable 2.3 mph - N/A Rain Light Rain
11:30 AM 57.2 °F 55.4 °F 94% 29.92 in 6.2 mi Calm Calm - N/A Rain Light Rain
12:00 PM 57.2 °F 55.4 °F 94% 29.95 in 5.0 mi Variable 3.5 mph - N/A Rain Light Rain
12:30 PM 57.2 °F 55.4 °F 94% 29.95 in 5.0 mi SSE 3.5 mph - N/A Rain Light Rain
1:00 PM 57.2 °F 57.2 °F 100% 29.95 in 6.2 mi Variable 2.3 mph - N/A Rain Light Rain
1:30 PM 59.0 °F 57.2 °F 94% 29.95 in 6.2 mi South 3.5 mph - N/A Rain Light Rain
2:00 PM 59.0 °F 57.2 °F 94% 29.92 in 6.2 mi Variable 2.3 mph - N/A   Mostly Cloudy
2:30 PM 59.0 °F 57.2 °F 94% 29.95 in 6.2 mi Calm Calm - N/A Rain Light Rain
3:00 PM 59.0 °F 57.2 °F 94% 29.95 in 1.2 mi WNW 4.6 mph - N/A Rain Light Rain
3:30 PM 59.0 °F 57.2 °F 94% 29.95 in 2.5 mi NW 5.8 mph - N/A Rain Light Rain
4:00 PM 59.0 °F 57.2 °F 94% 29.95 in 1.2 mi Variable 1.2 mph - N/A Rain Rain
4:30 PM 59.0 °F 57.2 °F 94% 29.95 in - North 5.8 mph - N/A Rain Light Rain
5:00 PM 59.0 °F 57.2 °F 94% 29.92 in 1.9 mi North 6.9 mph - N/A Rain Rain
5:30 PM 59.0 °F 57.2 °F 94% 29.92 in 5.0 mi North 8.1 mph - N/A Rain Light Rain
6:09 PM 59.0 °F 55.4 °F 88% 29.92 in 6.2 mi North 4.6 mph - N/A Rain Light Rain
6:30 PM 59.0 °F 55.4 °F 88% 29.92 in 6.2 mi North 5.8 mph - N/A Rain Light Rain
7:00 PM 59.0 °F 55.4 °F 88% 29.92 in 2.5 mi North 5.8 mph - N/A Rain Rain
7:30 PM 59.0 °F 55.4 °F 88% 29.92 in 4.3 mi North 5.8 mph - N/A Rain Light Rain
8:00 PM 57.2 °F 55.4 °F 94% 29.95 in 5.0 mi NNW 5.8 mph - N/A Rain Light Rain
8:30 PM 57.2 °F 55.4 °F 94% 29.92 in 3.7 mi NW 8.1 mph - N/A Rain Rain
9:00 PM 57.2 °F 55.4 °F 94% 29.95 in 3.1 mi NW 8.1 mph - N/A Rain Rain
9:30 PM 57.2 °F 55.4 °F 94% 29.95 in 2.8 mi NW 9.2 mph - N/A Rain Heavy Rain
10:00 PM 55.4 °F 53.6 °F 94% 29.95 in 5.6 mi WNW 11.5 mph - N/A Rain Light Rain
10:30 PM 57.2 °F 55.4 °F 94% 29.95 in 5.0 mi WNW 11.5 mph - N/A Rain Rain
11:00 PM 57.2 °F 53.6 °F 88% 29.98 in 5.6 mi WNW 8.1 mph - N/A Rain Rain
11:30 PM 55.4 °F 53.6 °F 94% 29.95 in - West 16.1 mph - N/A Rain Rain